AFL6077 UUEE-UWWW

Flight info

Callsign AFL6077
Flight time N/A
Altitude 39000
Route KOGOM3H KOGOM L94 EKPIR M864 IBROT T784 OTKOL T787 OKSUD T778 RUBEK RUBEK2G
Aircraft B77W/H-SDE1E2E3FGHIJ2J3J4J5M1RWXY/LB1D1

Departure

Time 2026-05-01 15:16
Airport Sheremetyevo International Airport (UUEE)

Arrival

Time N/A
Airport Kurumoch International Airport (UWWW)
Time Latitude Longitude Altitude Speed Heading
2026-05-01 14:51 55.96558 37.41243 647 ft 0 kts 107°
2026-05-01 14:57 55.96559 37.41243 647 ft 0 kts 107°
2026-05-01 15:03 55.96559 37.41242 647 ft 1 kts 107°
2026-05-01 15:04 55.96558 37.41222 647 ft 2 kts 67°
2026-05-01 15:04 55.96552 37.41198 647 ft 2 kts 65°
2026-05-01 15:04 55.96547 37.41173 647 ft 2 kts 69°
2026-05-01 15:04 55.96541 37.41148 647 ft 2 kts 70°
2026-05-01 15:05 55.96536 37.41123 647 ft 2 kts 69°
2026-05-01 15:05 55.96531 37.41098 647 ft 2 kts 69°
2026-05-01 15:05 55.96526 37.41073 647 ft 2 kts 69°
2026-05-01 15:05 55.96521 37.41048 647 ft 2 kts 69°
2026-05-01 15:06 55.96516 37.41023 647 ft 1 kts 69°
2026-05-01 15:06 55.96513 37.41010 647 ft 0 kts 76°
2026-05-01 15:08 55.96514 37.41014 647 ft 1 kts 75°
2026-05-01 15:08 55.96521 37.41058 647 ft 5 kts 67°
2026-05-01 15:08 55.96542 37.41109 647 ft 5 kts 27°
2026-05-01 15:08 55.96587 37.41128 647 ft 8 kts 359°
2026-05-01 15:09 55.96655 37.41111 647 ft 10 kts 347°
2026-05-01 15:09 55.96724 37.41077 647 ft 0 kts 347°
2026-05-01 15:09 55.96733 37.41074 647 ft 3 kts 349°
2026-05-01 15:09 55.96766 37.41062 647 ft 5 kts 345°
2026-05-01 15:10 55.96826 37.41035 647 ft 7 kts
2026-05-01 15:10 55.96899 37.41309 647 ft 17 kts 75°
2026-05-01 15:10 55.96939 37.41547 647 ft 20 kts 76°
2026-05-01 15:11 55.96978 37.41852 647 ft 28 kts 71°
2026-05-01 15:11 55.97084 37.42530 647 ft 28 kts 72°
2026-05-01 15:11 55.97135 37.42868 647 ft 28 kts 75°
2026-05-01 15:12 55.97197 37.43279 647 ft 37 kts 74°
2026-05-01 15:12 55.97327 37.44159 647 ft 36 kts 74°
2026-05-01 15:12 55.97366 37.44344 647 ft 1 kts 49°
2026-05-01 15:13 55.97433 37.44410 647 ft 0 kts 359°
2026-05-01 15:14 55.97452 37.44411 647 ft 5 kts 358°
2026-05-01 15:14 55.97527 37.44385 647 ft 13 kts 342°
2026-05-01 15:14 55.97551 37.44228 647 ft 0 kts 255°
2026-05-01 15:15 55.97543 37.44152 647 ft 26 kts 263°
2026-05-01 15:15 55.97154 37.41555 699 ft 177 kts 256°
2026-05-01 15:16 55.96661 37.37102 2201 ft 201 kts 259°
2026-05-01 15:16 55.96012 37.32339 4120 ft 209 kts 248°
2026-05-01 15:17 55.95230 37.27373 6016 ft 214 kts 271°
2026-05-01 15:18 55.98317 37.23844 8557 ft 217 kts 28°
2026-05-01 15:18 55.99483 37.25530 9349 ft 220 kts 51°
2026-05-01 15:19 55.99403 37.33250 11676 ft 223 kts 98°
2026-05-01 15:19 55.99193 37.38759 13186 ft 225 kts 92°
2026-05-01 15:19 55.99165 37.41538 13918 ft 224 kts 91°
2026-05-01 15:20 55.99173 37.47037 15292 ft 223 kts 90°
2026-05-01 15:20 55.99190 37.49800 15945 ft 222 kts 90°
2026-05-01 15:20 55.99210 37.52540 16561 ft 221 kts 89°
2026-05-01 15:21 55.99233 37.55248 17139 ft 221 kts 89°
2026-05-01 15:21 55.99254 37.57993 17702 ft 220 kts 89°
2026-05-01 15:21 55.99276 37.60708 18234 ft 220 kts 89°
2026-05-01 15:21 55.99297 37.63428 18660 ft 223 kts 90°
2026-05-01 15:22 55.99340 37.69403 18746 ft 256 kts 90°
2026-05-01 15:22 55.99363 37.72651 18945 ft 266 kts 90°
2026-05-01 15:22 55.99388 37.75970 19346 ft 267 kts 90°
2026-05-01 15:23 55.99410 37.79290 19765 ft 268 kts 90°
2026-05-01 15:23 55.99433 37.82617 20135 ft 270 kts 90°
2026-05-01 15:23 55.99455 37.86023 20490 ft 272 kts 90°
2026-05-01 15:23 55.99474 37.89381 20836 ft 275 kts 90°
2026-05-01 15:24 55.99494 37.92802 21182 ft 277 kts 90°
2026-05-01 15:24 55.99511 37.96323 21286 ft 290 kts 90°
2026-05-01 15:24 55.99529 38.00014 21320 ft 306 kts 90°
2026-05-01 15:24 55.99546 38.03946 21362 ft 322 kts 90°
2026-05-01 15:25 55.99564 38.08038 21399 ft 339 kts 90°
2026-05-01 15:25 55.99582 38.12333 21462 ft 355 kts 90°
2026-05-01 15:25 55.99600 38.16774 21829 ft 362 kts 90°
2026-05-01 15:25 55.99616 38.21272 22403 ft 362 kts 90°
2026-05-01 15:26 55.99629 38.25751 22933 ft 363 kts 90°
2026-05-01 15:26 55.99642 38.30305 23393 ft 366 kts 90°
2026-05-01 15:26 55.99654 38.34885 23836 ft 369 kts 90°
2026-05-01 15:26 55.99662 38.39465 24282 ft 372 kts 90°
2026-05-01 15:27 55.99669 38.44136 24736 ft 375 kts 90°
2026-05-01 15:27 55.99674 38.48747 25177 ft 377 kts 90°
2026-05-01 15:27 55.99677 38.53439 25615 ft 380 kts 90°
2026-05-01 15:28 55.99679 38.62925 26478 ft 385 kts 90°
2026-05-01 15:28 55.99677 38.67725 26904 ft 388 kts 91°
2026-05-01 15:28 55.99674 38.72566 27327 ft 390 kts 91°
2026-05-01 15:29 55.99661 38.82345 28159 ft 396 kts 91°
2026-05-01 15:29 55.99651 38.87251 28567 ft 398 kts 91°
2026-05-01 15:29 55.99626 38.97189 29373 ft 403 kts 91°
2026-05-01 15:30 55.99592 39.07292 30169 ft 409 kts 91°
2026-05-01 15:31 55.99499 39.27882 31766 ft 419 kts 91°
2026-05-01 15:31 55.99437 39.38371 32256 ft 432 kts 91°
2026-05-01 15:32 55.99359 39.49379 32294 ft 458 kts 91°
2026-05-01 15:32 55.99343 39.61081 32321 ft 484 kts 86°
2026-05-01 15:33 56.01578 39.79206 33206 ft 505 kts 73°
2026-05-01 15:34 56.02994 39.97633 35189 ft 498 kts 88°